[[{"header":{"parameterUnit":"m.s-1","parameterCategory":1,"la1":30.2991,"la2":30.254,"lo1":-89.0895,"lo2":-89.0444,"dy":0.0017,"dx":0.0017,"nx":28,"ny":28,"refTime":"2025-08-09T03:00:00:Z","depth":0,"parameterNumber":2,"parameterNumberName":"U-component_of_WINDS"},"data":[0,0,0,0,0,0,0,0,0,0,0,0,0,0,0,0,0,0,0,0,0,0,0,0,0,0,0,0,0,0,0,0,0,0,0,0,0,0,0,0,0,0,0,0,0,0,0,0,0,0,0,0,0,0,0,0,0,0,-1.1027,-1.1028,0,-1.1133,-1.1134,-1.1136,-1.1112,-1.111,-1.1108,-1.1106,-1.1218,-1.1223,-1.1228,0,0,0,0,0,0,0,0,0,0,0,0,0,-1.0806,-1.081,-1.1027,-1.1028,-1.1029,-1.1133,-1.1134,-1.1136,-1.1112,-1.111,-1.1107,-1.1105,-1.1217,-1.1222,-1.1228,0,0,0,0,0,0,0,0,0,0,0,0,0,-1.0906,-1.0811,-1.1026,-1.103,-1.1031,-1.1133,-1.1134,-1.1136,-1.1113,-1.1109,-1.1106,-1.1104,-1.1215,-1.1222,-1.1229,-1.1335,0,0,-1.1252,-1.1255,0,0,0,0,0,0,0,0,-1.09,-1.0914,-1.1028,-1.103,-1.1031,-1.1106,-1.1098,-1.1203,-1.1113,-1.1082,-1.1106,-1.1102,-1.1184,-1.1193,-1.122,-1.134,-1.1345,-1.1252,-1.1257,-1.126,-1.1262,0,0,0,0,0,0,0,-1.0893,-1.0909,-1.1069,-1.103,-1.1032,-1.1027,-1.1038,-1.1118,-1.1149,-1.1084,-1.1083,-1.1095,-1.1184,-1.1213,-1.1223,-1.1347,-1.1252,-1.1258,-1.1263,-1.1266,-1.156,-1.1564,0,0,0,0,0,0,-1.0884,-1.0904,-1.1065,-1.1072,-1.0957,-1.1033,-1.1046,-1.1085,-1.1148,-1.1154,-1.1098,-1.1094,-1.1202,-1.1214,-1.1226,-1.1356,-1.126,-1.1267,-1.1271,-1.1557,-1.1561,-1.1565,0,0,0,0,0,0,-1.088,-1.0899,-1.1061,-1.0988,-1.1008,-1.104,-1.1085,-1.1089,-1.1118,-1.1158,-1.1164,-1.1122,-1.12,-1.1216,-1.1308,-1.1359,-1.127,-1.1277,-1.1553,-1.1558,-1.1563,-1.1614,0,0,0,0,0,0,-1.0874,-1.0898,-1.0937,-1.0989,-1.1012,-1.114,-1.1088,-1.1093,-1.113,-1.1126,-1.1182,-1.1188,-1.1199,-1.1297,-1.1316,-1.1368,-1.1282,-1.1549,-1.1555,-1.1561,-1.1608,-1.1621,-1.1631,0,0,0,0,0,-1.0866,-1.0948,-1.094,-1.0959,-1.1062,-1.1143,-1.1157,-1.1167,-1.1134,-1.1175,-1.1201,-1.1186,-1.135,-1.1307,-1.1327,-1.1382,-1.1546,-1.1553,-1.1561,-1.1603,-1.1618,-1.1631,0,0,0,0,0,0,-1.0904,-1.0955,-1.0946,-1.1047,-1.1091,-1.1139,-1.1191,-1.1182,-1.1237,-1.1231,-1.1241,-1.1254,-1.1349,-1.1374,-1.1325,-1.1489,-1.1443,-1.1456,-1.1469,-1.1483,-1.1494,-1.1487,-1.1288,0,0,0,0,0,-1.0923,-1.0984,-1.1026,-1.1111,-1.1133,-1.1159,-1.1194,-1.1198,-1.1244,-1.1263,-1.1295,-1.1342,-1.1404,-1.1445,-1.1504,-1.1611,-1.1624,-1.1659,-1.167,-1.168,-1.1691,-1.1751,-1.1768,-1.159,-1.159,-1.159,0,0,-1.0966,-1.1001,-1.1039,-1.112,-1.1154,-1.1218,-1.1174,-1.1244,-1.1291,-1.1274,-1.1363,-1.1388,-1.1441,-1.1541,-1.1587,-1.1566,-1.1742,-1.169,-1.1697,-1.1703,-1.1761,-1.1777,-1.1792,-1.1596,-1.1595,-1.1594,0,0,-1.1076,-1.1108,-1.1183,-1.1218,-1.127,-1.1286,-1.1304,-1.1353,-1.1369,-1.1458,-1.1447,-1.1504,-1.161,-1.1649,-1.1682,-1.1806,-1.1795,-1.1825,-1.1886,-1.1944,-1.1958,-1.197,-1.2016,-1.2033,-1.1835,-1.1835,-1.1836,0,-1.1122,-1.1216,-1.1223,-1.1293,-1.133,-1.1315,-1.1392,-1.1426,-1.1495,-1.1522,-1.1496,-1.1629,-1.1663,-1.1773,-1.1804,-1.183,-1.1853,-1.182,-1.1955,-1.1968,-1.198,-1.2024,-1.2041,-1.1839,-1.1838,-1.1838,-1.1838,0,-1.1272,-1.1337,-1.1392,-1.1458,-1.1501,-1.1574,-1.1593,-1.1635,-1.1634,-1.1654,-1.1745,-1.1786,-1.1853,-1.1879,-1.188,-1.199,-1.1975,-1.1952,-1.1907,-1.2,-1.2041,-1.2058,-1.1844,-1.1842,-1.1841,-1.1841,0,0,-1.141,-1.1478,-1.1498,-1.1528,-1.1584,-1.1636,-1.1709,-1.1774,-1.1811,-1.1859,-1.1922,-1.2011,-1.1991,-1.2029,-1.2033,-1.2084,-1.2182,-1.2056,-1.2057,-1.2079,-1.2307,-1.2326,-1.2345,-1.2174,-1.2177,-1.218,-1.2304,0,-1.1526,-1.1654,-1.1662,-1.1778,-1.184,-1.1826,-1.189,-1.1932,-1.1952,-1.2008,-1.2029,-1.2094,-1.2061,-1.2084,-1.2133,-1.2159,-1.2228,-1.215,-1.2235,-1.2237,-1.2224,-1.2366,-1.2386,-1.2501,-1.232,-1.2322,-1.2324,0,-1.168,-1.1731,-1.1853,-1.1901,-1.1927,-1.1984,-1.2045,-1.2098,-1.2146,-1.2156,-1.2198,-1.2196,-1.2272,-1.2223,-1.2329,-1.2276,-1.231,-1.2328,-1.2333,-1.2343,-1.2288,-1.2382,-1.2538,-1.2556,-1.235,-1.2348,-1.2346,0,-1.1771,-1.1871,-1.1957,-1.1983,-1.204,-1.2081,-1.2107,-1.2151,-1.219,-1.2243,-1.2269,-1.233,-1.2364,-1.2412,-1.2427,-1.239,-1.2534,-1.2485,-1.2546,-1.2546,-1.2579,-1.2577,-1.2744,-1.2598,-1.2598,-1.2597,-1.2597,0,-1.1901,-1.1977,-1.1999,-1.2052,-1.2137,-1.2145,-1.2229,-1.2253,-1.2292,-1.2351,-1.2343,-1.2398,-1.2413,-1.2472,-1.2484,-1.2571,-1.2586,-1.2598,-1.2601,-1.26,-1.2599,-1.2625,-1.2618,-1.2602,-1.2601,-1.26,-1.2599,0,-1.2018,-1.2035,-1.2129,-1.2175,-1.2188,-1.2249,-1.2289,-1.2341,-1.2359,-1.2433,-1.2451,-1.248,-1.2548,-1.2567,-1.2649,-1.2657,-1.2761,-1.2755,-1.2745,-1.2745,-1.2806,-1.2801,-1.2997,-1.3024,-1.2858,-1.286,-1.2861,0,-1.2101,-1.2159,-1.2211,-1.2249,-1.2276,-1.2338,-1.2377,-1.2387,-1.2429,-1.2487,-1.2533,-1.26,-1.2654,-1.2765,-1.2794,-1.2857,-1.2854,-1.2918,-1.2864,-1.2862,-1.2858,-1.2855,-1.2862,-1.293,-1.2931,-1.2933,-1.2934,0,-1.2247,-1.2253,-1.2309,-1.2369,-1.2415,-1.2463,-1.2509,-1.2541,-1.2557,-1.2605,-1.2674,-1.2716,-1.28,-1.2867,-1.2931,-1.2959,-1.2951,-1.295,-1.2969,-1.297,-1.2962,-1.2969,-1.2775,-1.2947,-1.2945,-1.2944,-1.2944,-1.2943,-1.2351,-1.2402,-1.2447,-1.251,-1.2545,-1.2588,-1.2639,-1.2663,-1.2721,-1.2789,-1.2792,-1.2868,-1.2914,-1.2999,-1.303,-1.3091,-1.3072,-1.3097,-1.3104,-1.3111,-1.3117,-1.295,-1.3102,-1.3102,-1.3102,-1.3101,-1.3101,0,-1.2499,-1.2527,-1.2584,-1.2648,-1.2698,-1.2683,-1.2733,-1.2776,-1.2843,-1.2886,-1.294,-1.302,-1.3086,-1.3119,-1.3185,-1.3227,-1.3224,-1.3244,-1.3242,-1.3249,-1.3129,-1.3108,-1.3245,-1.3245,-1.3244,-1.3244,-1.3244,-1.3244,-1.2582,-1.2668,-1.2679,-1.2783,-1.281,-1.2884,-1.2914,-1.2954,-1.2989,-1.3078,-1.3132,-1.3153,-1.3193,-1.3261,-1.3321,-1.333,-1.3355,-1.3377,-1.3384,-1.3272,-1.3257,-1.3243,-1.3224,-1.3382,-1.3382,-1.3498,-1.3499,-1.35]},{"header":{"parameterUnit":"m.s-1","parameterCategory":1,"la1":30.2991,"la2":30.254,"lo1":-89.0895,"lo2":-89.0444,"dy":0.0017,"dx":0.0017,"nx":28,"ny":28,"refTime":"2025-08-09T03:00:00:Z","depth":0,"parameterNumber":3,"parameterNumberName":"V-component_of_WINDS"},"data":[0,0,0,0,0,0,0,0,0,0,0,0,0,0,0,0,0,0,0,0,0,0,0,0,0,0,0,0,0,0,0,0,0,0,0,0,0,0,0,0,0,0,0,0,0,0,0,0,0,0,0,0,0,0,0,0,0,0,0.5558,0.5559,0,0.563,0.5631,0.5631,0.5676,0.5676,0.5676,0.5676,0.5749,0.575,0.5752,0,0,0,0,0,0,0,0,0,0,0,0,0,0.5458,0.546,0.5558,0.5559,0.556,0.563,0.5631,0.5632,0.5676,0.5676,0.5676,0.5676,0.5748,0.575,0.5752,0,0,0,0,0,0,0,0,0,0,0,0,0,0.5513,0.546,0.5558,0.559,0.5594,0.5629,0.5631,0.5632,0.5675,0.5676,0.5676,0.5676,0.5747,0.575,0.5752,0.5761,0,0,0.576,0.5761,0,0,0,0,0,0,0,0,0.551,0.5516,0.5585,0.5588,0.5592,0.5644,0.5622,0.5675,0.5675,0.5644,0.5676,0.5677,0.5713,0.5719,0.5731,0.5764,0.5768,0.576,0.5762,0.5763,0.5764,0,0,0,0,0,0,0,0.5506,0.5514,0.5587,0.5586,0.559,0.5601,0.5609,0.5632,0.5676,0.5647,0.5651,0.5658,0.5716,0.5729,0.5733,0.5769,0.576,0.5763,0.5764,0.5765,0.5812,0.5812,0,0,0,0,0,0,0.5497,0.551,0.5584,0.5589,0.5551,0.5602,0.5611,0.5627,0.5676,0.5684,0.5658,0.566,0.5724,0.573,0.5736,0.575,0.5763,0.5765,0.5767,0.5813,0.5812,0.5812,0,0,0,0,0,0,0.5495,0.5503,0.5581,0.555,0.5561,0.5604,0.5621,0.5628,0.5642,0.5684,0.5692,0.5664,0.5725,0.5733,0.5755,0.5753,0.5767,0.5769,0.5813,0.5812,0.5812,0.5777,0,0,0,0,0,0,0.5492,0.5502,0.5506,0.555,0.5563,0.5599,0.5621,0.5629,0.5646,0.565,0.5692,0.5699,0.5726,0.5751,0.5757,0.5757,0.5771,0.5813,0.5813,0.5812,0.5778,0.5775,0.5772,0,0,0,0,0,0.5488,0.5493,0.5506,0.5515,0.5569,0.5599,0.5606,0.5637,0.5646,0.565,0.5677,0.5698,0.5752,0.5752,0.576,0.576,0.5814,0.5813,0.5812,0.578,0.5776,0.5773,0,0,0,0,0,0,0.5448,0.55,0.5515,0.5534,0.5562,0.5606,0.5613,0.5632,0.5657,0.5659,0.5696,0.5706,0.5724,0.5744,0.5744,0.5771,0.5785,0.5786,0.5757,0.5754,0.5751,0.5746,0.5773,0,0,0,0,0,0.5441,0.5462,0.5506,0.5519,0.5532,0.557,0.5584,0.5605,0.5635,0.5647,0.5676,0.5704,0.5727,0.5742,0.5766,0.5781,0.5791,0.5785,0.5782,0.578,0.578,0.579,0.5788,0.581,0.581,0.581,0,0,0.5428,0.5459,0.5469,0.5512,0.5535,0.5555,0.5579,0.5599,0.5614,0.565,0.5673,0.5695,0.5728,0.5747,0.5757,0.5765,0.5776,0.5779,0.5777,0.5778,0.5789,0.5787,0.5785,0.5809,0.581,0.581,0,0,0.5414,0.5439,0.5453,0.5476,0.5512,0.5537,0.554,0.5582,0.5598,0.5621,0.5648,0.5667,0.5706,0.5729,0.5746,0.574,0.5759,0.5746,0.5731,0.574,0.5738,0.5737,0.5735,0.5734,0.5746,0.5746,0.5746,0,0.5393,0.5424,0.5458,0.5476,0.5494,0.5527,0.5541,0.5562,0.5603,0.5615,0.5623,0.5673,0.5698,0.5723,0.5721,0.5734,0.5738,0.5742,0.5736,0.5735,0.5734,0.5733,0.5732,0.5745,0.5745,0.5745,0.5745,0,0.5397,0.5418,0.5425,0.5464,0.5482,0.5498,0.5534,0.5548,0.5568,0.5592,0.5615,0.5646,0.5677,0.5684,0.5703,0.5711,0.5715,0.5729,0.5744,0.573,0.5729,0.5728,0.5742,0.5743,0.5743,0.5744,0,0,0.536,0.5417,0.5419,0.5437,0.5479,0.5496,0.5513,0.5544,0.5555,0.5583,0.5598,0.563,0.5644,0.5663,0.5685,0.5692,0.5686,0.5706,0.5707,0.5701,0.5696,0.5685,0.5684,0.5699,0.5699,0.5699,0.5693,0,0.5352,0.5385,0.5415,0.5438,0.5458,0.5489,0.5504,0.5531,0.5554,0.5574,0.5599,0.5621,0.5637,0.5649,0.5658,0.5684,0.5685,0.5685,0.5713,0.5714,0.5704,0.5683,0.5672,0.5665,0.5693,0.5693,0.5693,0,0.5348,0.5374,0.5398,0.5437,0.5447,0.546,0.549,0.5509,0.554,0.5556,0.5576,0.56,0.5619,0.5631,0.5658,0.5658,0.5671,0.5685,0.5686,0.569,0.5702,0.5687,0.5664,0.5663,0.5693,0.5693,0.5693,0,0.5318,0.536,0.5379,0.5394,0.544,0.5449,0.5469,0.55,0.5516,0.5542,0.5553,0.5581,0.5596,0.5616,0.5646,0.5652,0.567,0.5685,0.5684,0.5683,0.5686,0.5686,0.5665,0.5694,0.5694,0.5694,0.5694,0,0.5307,0.532,0.5367,0.5379,0.5395,0.5429,0.5444,0.5466,0.5494,0.551,0.5539,0.5554,0.5593,0.5612,0.5636,0.5655,0.5661,0.5674,0.568,0.5672,0.567,0.5681,0.5682,0.5694,0.5694,0.5694,0.5694,0,0.5277,0.5309,0.5332,0.5374,0.5385,0.5395,0.5431,0.5444,0.5468,0.5488,0.5495,0.5533,0.5558,0.5589,0.5624,0.564,0.5655,0.5665,0.5645,0.5649,0.5646,0.5646,0.5632,0.5632,0.566,0.566,0.566,0,0.5267,0.5279,0.5322,0.5335,0.5354,0.5375,0.5392,0.5426,0.5442,0.5477,0.5486,0.5512,0.5536,0.5573,0.5603,0.563,0.564,0.5633,0.5644,0.5635,0.564,0.5639,0.564,0.5631,0.563,0.563,0.563,0,0.5247,0.5262,0.5285,0.5314,0.5333,0.5356,0.5382,0.5391,0.543,0.5446,0.5472,0.549,0.5525,0.5551,0.5581,0.5601,0.5622,0.5626,0.5627,0.5618,0.5606,0.5613,0.5638,0.5626,0.5626,0.5627,0.5627,0.5627,0.5228,0.5239,0.5271,0.5295,0.5318,0.534,0.5354,0.538,0.5402,0.5434,0.5452,0.5477,0.5507,0.555,0.5569,0.5588,0.5596,0.5598,0.5598,0.5598,0.5596,0.5603,0.5594,0.5594,0.5594,0.5594,0.5594,0,0.5209,0.5231,0.5253,0.5287,0.5306,0.5324,0.5353,0.5368,0.5389,0.5416,0.5438,0.5467,0.5492,0.5524,0.5552,0.5561,0.5571,0.5567,0.5567,0.5571,0.5587,0.5583,0.5558,0.5558,0.5558,0.5558,0.5558,0.5558,0.5201,0.5221,0.524,0.5271,0.5293,0.5318,0.5333,0.5354,0.5375,0.5406,0.5427,0.5448,0.5477,0.5507,0.553,0.5539,0.5548,0.5541,0.5552,0.5567,0.557,0.5573,0.557,0.5542,0.5542,0.5535,0.5535,0.5535]}]]